Location: Oberstdorf
(47.4188°N, 10.2969°E)
Time: 05:12:24
(UTC+02:00)

Envisat - Visible Passes

Search period start: 20 July 2018 00:00
Search period end: 30 July 2018 00:00
Orbit: 764 x 766 km, 98.2° (Epoch: 19 July)

Date Brightness Start Highest point End Pass type
(mag) Time Alt. Az. Time Alt. Az. Time Alt. Az.
20 Jul 6.1 22:13:13 10° W 22:14:10 10° W 22:15:08 10° WNW visible
23 Jul 5.8 22:00:23 10° WSW 22:02:50 13° W 22:05:17 10° WNW visible
26 Jul 5.6 21:48:18 10° SW 21:51:31 17° W 21:54:46 10° NW visible
29 Jul 5.5 21:36:28 10° SW 21:40:13 21° W 21:44:02 10° NW visible
